SCP
0 0 0 0 0 0 0 0 0 0 0 0 0 0 0 0 0 0 0 0 0 0 0 0 0 0 0 0 0 0 0 0 0 0 0 0 0 0 0 0 0 0 0 0
0 0 0 0 0 0 0 0 0 0 0 0 0 0 0 0 0 0 0 0 0 0 0 0 0 0 0 0 0 0 0 0 0 0 0 0 0 0 0 0 0 0 0 0
0 0 0 0 0 0 0 0 0 0 0 0 0 0 0 0 0 0 0 0 0 0 0 0 0 0 0 0 0 0 0 0 0 0 0 0 0 0 0 0 0 0 0 0
0 0 0 0 0 0 0 0 0 0 0 0 0 0 0 0 0 0 0 0 0 0 0 0 0 0 0 0 0 0 0 0 0 0 0 0 0 0 0 0 0 0 0 0
0 0 0 0 0 0 0 0 0 0 0 0 0 0 0 0 0 0 0 0 0 0 0 0 0 0 0 0 0 0 0 0 0 0 0 0 0 0 0 0 0 0 0 0
0 0 0 0 0 0 0 0 0 0 0 0 0 0 0 0 0 0 0 0 0 0 0 0 0 0 0 0 0 0 0 0 0 0 0 0 0 0 0 0 0 0 0 0
0 0 0 0 0 0 0 0 0 0 0 0 0 0 0 0 0 0 0 0 0 0 0 0 0 0 0 0 0 0 0 0 0 0 0 0 0 0 0 0 0 0 0 0
0 0 0 0 0 0 0 0 0 0 0 0 0 0 0 0 0 0 0 0 0 0 0 0 0 0 0 0 0 0 0 0 0 0 0 0 0 0 0 0 0 0 0 0
0 0 0 0 0 0 0 0 0 0 0 0 0 0 0 0 0 0 0 0 0 0 0 0 0 0 0 0 0 0 0 0 0 0 0 0 0 0 0 0 0 0 0 0
0 0 0 0 0 0 0 0 0 0 0 0 0 0 0 0 0 0 0 0 0 0 0 0 0 0 0 0 0 0 0 0 0 0 0 0 0 0 0 0 0 0 0 0
0 0 0 0 0 0 0 0 0 0 0 0 0 0 0 0 0 0 0 0 0 0 0 0 0 0 0 0 0 0 0 0 0 0 0 0 0 0 0 0 0 0 0 0
0 0 0 0 0 0 0 0 0 0 0 0 0 0 0 0 0 0 0 0 0 0 0 0 0 0 0 0 0 0 0 0 0 0 0 0 0 0 0 0 0 0 0 0
0 0 0 0 0 0 0 0 0 0 0 0 0 0 0 0 0 0 0 0 0 0 0 0 0 0 0 0 0 0 0 0 0 0 0 0 0 0 0 0 0 0 0 0
0 0 0 0 0 0 0 0 0 0 0 0 0 0 0 0 0 0 0 0 0 0 0 0 0 0 0 0 0 0 0 0 0 0 0 0 0 0 0 0 0 0 0 0
0 0 0 0 0 0 0 0 0 0 0 0 0 0 0 0 0 0 0 0 0 0 0 0 0 0 0 0 0 0 0 0 0 0 0 0 0 0 0 0 0 0 0 0
0 0 0 0 0 0 0 0 0 0 0 0 0 0 0 0 0 0 0 0 0 0 0 0 0 0 0 0 0 0 0 0 0 0 0 0 0 0 0 0 0 0 0 0
0 0 0 0 0 0 0 0 0 0 0 0 0 0 0 0 0 0 0 0 0 0 0 0 0 0 0 0 0 0 0 0 0 0 0 0 0 0 0 0 0 0 0 0
0 0 0 0 0 0 0 0 0 0 0 0 0 0 0 0 0 0 0 0 0 0 0 0 0 0 0 0 0 0 0 0 0 0 0 0 0 0 0 0 0 0 0 0
0 0 0 0 0 0 0 0 0 0 0 0 0 0 0 0 0 0 0 0 0 0 0 0 0 0 0 0 0 0 0 0 0 0 0 0 0 0 0 0 0 0 0 0
0 0 0 0 0 0 0 0 0 0 0 0 0 0 0 0 0 0 0 0 0 0 0 0 0 0 0 0 0 0 0 0 0 0 0 0 0 0 0 0 0 0 0 0
0 0 0 0 0 0 0 0 0 0 0 0 0 0 0 0 0 0 0 0 0 0 0 0 0 0 0 0 0 0 0 0 0 0 0 0 0 0 0 0 0 0 0 0
0 0 0 0 0 0 0 0 0 0 0 0 0 0 0 0 0 0 0 0 0 0 0 0 0 0 0 0 0 0 -0 -0 0 0 0 0 0 0 0 0 0 0 0 0
0 0 0 0 0 0 0 0 0 0 0 0 0 0 0 0 0 0 0 0 0 0 0 0 0 0 0 0 0 0 0 0 0 0 0 0 0 0 0 0 0 0 0 0
0 0 0 0 0 0 0 0 0 0 0 0 0 0 0 0 0 0 0 0 0 0 0 0 0 0 0 0 0 0 0 0 0 0 0 0 0 0 0 0 0 0 0 0
0 0 0 0 0 0 0 0 0 0 0 0 0 0 0 0 0 0 0 0 0 0 0 0 0 0 0 0 0 0 0 0 0 0 0 0 0 0 0 0 0 0 0 0
0 0 0 0 0 0 0 0 0 0 0 0 0 0 0 0 0 0 0 0 0 0 0 0 0 0 0 0 0 0 0 0 0 0 0 0 0 0 0 0 0 0 0 0
0 0 0 0 0 0 0 0 0 0 0 0 0 0 0 0 0 0 0 0 0 0 0 0 0 0 0 0 0 0 0 0 0 0 0 0 0 0 0 0 0 0 0 0
Wind_Speed
6 6 4 5 6 5 6 6 6 6 5 4 3 2 1 1 2 3 3 3 3 2 2 2 1 0 1 3 3 4 4 4 3 3 3 3 3 3 3 3 3 3 3 2
5 4 3 5 6 6 6 5 6 5 6 3 2 2 2 1 2 2 2 2 3 3 2 2 2 1 1 2 3 3 4 3 3 3 3 3 3 3 2 3 3 3 3 3
4 3 2 6 5 5 3 2 3 6 5 1 2 2 1 0 0 1 2 3 3 2 2 2 2 0 1 2 2 3 3 3 3 3 3 3 3 3 3 2 2 3 3 3
2 1 5 5 1 0 2 1 1 1 2 2 1 2 2 2 1 2 3 3 3 3 3 3 2 2 1 2 3 3 3 3 3 3 3 3 3 3 2 2 2 2 2 3
2 2 5 3 3 2 1 3 2 1 2 3 2 2 3 4 3 2 2 2 2 2 2 2 2 2 2 2 2 2 2 2 2 3 3 3 3 3 2 2 1 2 2 2
2 3 5 3 4 4 0 3 3 2 1 2 2 1 2 4 4 4 4 3 3 2 2 2 2 2 2 2 2 1 1 2 2 3 3 3 3 2 2 2 2 2 1 2
3 4 5 3 5 2 2 4 4 3 1 1 0 1 2 3 4 4 4 4 3 3 2 2 2 2 2 2 1 0 1 1 1 2 2 3 3 2 2 2 2 1 1 1
2 3 5 4 3 1 2 3 3 3 2 1 1 2 2 3 3 4 4 4 4 3 3 3 3 2 2 1 1 1 1 1 1 1 1 2 3 2 2 2 2 2 1 1
3 4 2 1 0 2 1 2 3 3 3 1 1 2 2 3 3 3 4 4 4 3 4 4 4 3 1 1 1 1 1 1 1 1 1 2 3 3 2 2 2 2 1 1
1 2 2 2 2 4 3 2 3 3 2 1 1 1 2 2 3 3 4 4 4 4 4 4 4 3 2 1 1 1 1 1 1 1 1 1 1 1 2 2 2 2 2 2
2 3 3 2 2 3 3 3 4 4 3 2 1 1 1 2 2 3 3 4 3 3 3 4 4 3 3 2 1 1 1 1 1 1 1 1 1 1 1 2 3 3 2 2
4 3 2 3 2 1 2 2 3 3 3 3 2 1 1 1 2 2 3 3 3 3 3 3 3 4 3 2 1 1 0 1 0 1 1 1 1 1 2 1 3 3 3 3
3 1 1 2 1 1 1 2 2 2 1 2 2 1 1 1 1 2 2 3 3 3 3 3 3 4 4 2 1 0 1 0 0 0 0 0 0 0 0 1 2 2 3 3
1 1 1 1 2 2 1 2 2 2 2 1 1 1 1 1 1 2 2 3 3 3 3 3 3 4 4 2 1 1 0 0 0 1 1 1 1 1 1 1 1 1 3 4
2 1 1 1 1 1 1 1 2 2 2 2 2 1 1 1 1 2 2 3 3 3 3 3 3 4 3 2 1 1 1 0 0 0 0 1 1 1 1 1 1 1 1 2
2 2 1 1 1 1 2 2 1 1 1 2 2 2 2 1 2 2 2 2 2 3 3 3 3 3 3 2 1 1 1 1 1 0 0 1 1 1 1 1 1 1 1 2
0 1 1 2 2 2 2 1 1 1 1 1 2 2 2 2 2 3 3 3 2 3 3 3 3 3 3 2 1 1 1 1 2 1 1 1 1 1 1 1 2 2 2 3
2 2 2 2 2 1 2 1 1 1 1 1 1 1 1 2 2 3 3 3 3 3 4 4 3 3 2 2 1 1 1 1 1 1 1 1 1 1 1 2 2 2 2 3
1 1 1 1 1 0 1 1 1 1 1 1 1 1 1 2 2 3 2 3 3 4 4 4 5 4 3 3 2 1 0 1 1 1 1 2 2 1 1 2 2 2 2 2
2 2 2 2 2 1 1 1 1 1 1 1 1 1 2 2 2 2 2 2 3 3 4 4 4 3 3 3 3 1 1 1 2 1 1 1 1 2 2 2 2 2 2 2
1 1 1 1 1 2 1 1 1 1 2 1 1 1 2 3 2 2 2 3 4 4 4 5 3 3 2 3 3 0 1 1 2 2 2 2 2 2 2 2 2 2 2 2
1 1 1 1 1 2 2 1 1 1 1 2 2 2 2 3 3 2 2 3 4 6 4 3 3 4 4 3 1 1 1 1 2 2 2 2 2 2 2 2 2 3 3 3
0 0 0 0 0 1 2 2 1 1 1 2 2 2 2 2 2 2 4 3 3 6 4 3 5 7 6 2 1 1 1 2 2 2 2 2 2 3 3 3 3 3 3 3
0 0 1 1 1 1 2 2 2 1 1 2 2 2 2 2 3 2 3 6 7 7 4 5 8 8 6 2 1 1 2 2 2 2 2 2 3 3 3 3 3 3 3 4
0 0 1 1 1 1 1 2 2 2 2 2 2 3 2 2 2 3 3 4 6 7 4 6 9 8 4 2 2 2 2 3 3 3 3 3 3 3 3 3 3 4 4 4
0 0 0 0 1 1 1 1 1 2 2 2 3 2 2 2 3 3 3 4 5 6 4 3 4 5 3 3 3 3 3 4 4 3 3 3 4 4 4 4 5 4 4 4
1 1 1 1 1 1 1 1 2 2 2 2 3 3 3 3 3 3 4 3 3 3 3 3 3 3 3 3 3 3 3 3 3 3 3 3 3 4 4 5 4 4 4 5
Wind_Direction
265 269 251 257 269 249 219 221 224 246 245 270 291 272 299 13 37 55 47 37 29 25 16 15 32 85 146 150 146 146 146 150 159 158 152 148 146 157 163 169 175 172 169 171
277 271 262 286 284 261 249 246 241 259 273 298 336 40 46 37 46 37 14 8 13 15 14 5 358 13 105 130 139 141 146 148 146 141 140 145 149 152 157 166 173 169 169 176
271 296 330 280 261 228 215 224 215 245 262 326 9 360 315 280 44 5 356 355 360 359 357 351 339 15 127 132 130 135 141 144 146 144 144 151 154 154 168 171 170 175 179 183
271 1 235 244 354 221 196 255 294 310 341 354 3 337 357 33 38 9 357 350 348 350 353 356 2 21 85 108 124 133 136 143 150 147 147 148 150 160 173 175 172 180 185 192
196 235 267 293 343 1 213 279 332 314 344 358 1 27 13 12 16 1 346 339 341 348 357 4 9 18 73 97 112 128 142 153 157 154 155 155 160 166 168 162 162 184 185 187
190 210 242 274 318 317 231 264 355 352 339 350 24 1 297 345 359 5 8 4 4 8 25 21 8 25 76 87 105 132 162 166 162 163 164 165 170 169 165 167 169 181 195 200
215 226 258 302 314 350 169 274 333 336 340 14 270 252 296 349 2 9 8 4 7 18 19 6 10 38 66 74 72 83 122 132 144 158 166 162 161 160 158 158 149 169 186 218
195 216 258 343 24 98 261 329 343 348 349 4 10 10 7 12 8 9 9 6 8 15 8 6 16 47 57 35 15 52 84 104 121 147 160 147 149 155 154 154 157 171 175 216
197 216 281 359 222 309 349 343 336 339 343 29 41 5 2 10 8 10 5 360 1 9 8 9 15 33 44 356 20 61 83 97 119 124 129 143 155 160 158 161 169 187 187 210
250 281 303 332 12 18 21 8 353 360 6 21 34 9 5 5 5 3 1 357 359 8 12 5 7 13 6 356 29 77 98 99 111 117 118 128 150 162 172 183 188 199 206 218
260 284 324 342 356 351 12 23 16 10 12 15 45 8 2 360 358 354 354 357 1 6 5 355 357 359 355 8 53 76 98 111 106 104 126 132 128 183 209 212 209 207 208 211
241 241 238 274 300 348 23 357 354 6 12 17 32 19 15 7 2 357 354 358 359 1 358 349 352 354 347 351 36 100 77 81 94 104 118 115 109 12 332 294 269 265 259 248
250 276 251 285 330 2 359 337 348 6 12 7 22 36 42 19 8 4 357 356 350 343 343 345 351 350 342 347 1 55 166 187 189 127 146 161 180 177 308 333 326 307 289 279
332 66 19 317 311 336 355 352 9 19 19 30 38 33 34 32 13 358 346 339 336 339 339 342 349 340 331 336 350 3 34 272 276 204 200 203 213 220 219 222 285 315 314 307
7 9 276 314 23 14 5 9 22 22 22 25 33 28 17 10 347 334 333 337 344 348 343 344 344 331 328 335 348 350 343 310 257 228 229 229 231 233 230 230 250 276 307 317
337 18 42 46 15 346 351 355 2 344 351 359 4 354 349 346 331 329 337 344 349 340 334 334 326 319 325 333 336 342 317 313 339 333 274 254 245 238 244 250 259 264 275 286
132 281 296 302 297 301 305 309 303 306 328 336 329 339 357 359 350 342 337 337 330 318 318 317 313 316 322 326 322 320 315 296 320 326 289 269 256 244 242 243 250 261 267 273
231 240 240 245 251 274 305 322 328 330 320 315 347 10 2 344 323 320 325 333 335 331 324 316 311 309 314 318 313 309 311 311 300 284 286 277 267 254 248 248 254 266 277 283
3 19 14 3 341 298 298 319 329 335 339 353 3 332 316 312 310 315 328 342 339 327 317 311 322 332 326 314 317 293 285 288 292 289 283 281 298 283 260 252 253 258 266 273
22 24 27 24 25 25 351 344 353 353 343 355 11 356 339 327 325 324 325 321 304 289 297 312 320 319 312 298 304 281 277 273 273 279 280 271 272 274 268 263 259 262 268 271
2 9 20 25 12 2 356 353 8 346 343 359 355 312 312 321 327 326 322 314 315 312 309 322 326 312 302 294 302 295 277 277 274 270 268 267 269 271 272 271 272 272 271 272
325 349 352 8 16 355 350 358 4 359 359 355 344 334 334 330 328 321 301 288 304 323 329 319 311 306 311 316 311 267 261 263 266 268 264 264 265 267 269 270 270 273 272 270
305 308 338 342 331 336 354 2 359 355 342 335 333 328 319 313 317 312 308 312 312 321 328 317 314 318 325 339 328 283 268 261 261 261 262 262 262 262 264 267 268 269 269 269
7 19 6 17 58 49 359 337 339 333 320 316 316 314 311 311 311 298 290 313 325 325 326 323 326 325 331 347 320 296 282 272 266 262 263 265 263 261 260 262 265 266 266 268
56 50 63 61 35 323 309 326 339 335 331 325 323 322 313 298 291 304 311 314 320 326 325 326 329 330 337 327 312 296 285 272 263 257 252 256 257 258 259 260 261 264 266 266
54 1 318 296 292 307 319 328 328 324 324 324 323 319 314 310 307 309 311 315 316 324 326 318 319 323 320 309 299 293 287 292 297 288 267 260 258 258 260 260 262 262 263 263
34 33 17 355 342 335 329 323 315 312 314 308 307 315 320 320 319 319 318 317 316 315 312 311 311 308 306 303 299 294 289 286 283 280 277 272 269 267 267 265 266 265 265 264